[[{"header":{"parameterUnit":"m.s-1","parameterCategory":1,"la1":30.2991,"la2":30.254,"lo1":-89.0895,"lo2":-89.0444,"dy":0.0017,"dx":0.0017,"nx":28,"ny":28,"refTime":"2026-03-04T03:00:00:Z","depth":0,"parameterNumber":2,"parameterNumberName":"U-component_of_WINDS"},"data":[0,0,0,0,0,0,0,0,0,0,0,0,0,0,0,0,0,0,0,0,0,0,0,0,0,0,0,0,0,0,0,0,0,0,0,0,0,0,0,0,0,0,0,0,0,0,0,0,0,0,0,0,0,0,0,0,0,0,-2.7244,-2.7245,0,-2.7273,-2.7274,-2.7274,-2.7239,-2.7238,-2.7236,-2.7235,-2.7268,-2.727,-2.7272,0,0,0,0,0,0,0,0,0,0,0,0,0,-2.7163,-2.7165,-2.7244,-2.7245,-2.7245,-2.7273,-2.7274,-2.7274,-2.7239,-2.7238,-2.7236,-2.7235,-2.7267,-2.727,-2.7272,0,0,0,0,0,0,0,0,0,0,0,0,0,-2.7196,-2.7165,-2.7244,-2.7231,-2.723,-2.7273,-2.7274,-2.7274,-2.724,-2.7238,-2.7236,-2.7234,-2.7267,-2.727,-2.7273,-2.7331,0,0,-2.7282,-2.7284,0,0,0,0,0,0,0,0,-2.7194,-2.7199,-2.7233,-2.7232,-2.7231,-2.725,-2.7257,-2.7293,-2.724,-2.7236,-2.7235,-2.7233,-2.7264,-2.7267,-2.7277,-2.7333,-2.7334,-2.7283,-2.7285,-2.7286,-2.7287,0,0,0,0,0,0,0,-2.7192,-2.7198,-2.7256,-2.7233,-2.7232,-2.7225,-2.7228,-2.7264,-2.7261,-2.7236,-2.7234,-2.7238,-2.7263,-2.7274,-2.7278,-2.7335,-2.7283,-2.7285,-2.7287,-2.7289,-2.7442,-2.7445,0,0,0,0,0,0,-2.7191,-2.7196,-2.7255,-2.7257,-2.7207,-2.7228,-2.7231,-2.7246,-2.726,-2.726,-2.7239,-2.7236,-2.727,-2.7274,-2.7279,-2.7349,-2.7286,-2.7289,-2.7291,-2.744,-2.7443,-2.7445,0,0,0,0,0,0,-2.7189,-2.7196,-2.7254,-2.7226,-2.7232,-2.7232,-2.7249,-2.7248,-2.7259,-2.7262,-2.7262,-2.7251,-2.7268,-2.7274,-2.7319,-2.735,-2.729,-2.7293,-2.7438,-2.7441,-2.7444,-2.749,0,0,0,0,0,0,-2.7187,-2.7196,-2.7217,-2.7226,-2.7234,-2.7292,-2.7251,-2.725,-2.7264,-2.726,-2.7273,-2.7273,-2.7267,-2.7314,-2.7322,-2.7353,-2.7296,-2.7435,-2.7439,-2.7443,-2.7485,-2.7494,-2.7502,0,0,0,0,0,-2.7184,-2.7229,-2.7218,-2.7225,-2.726,-2.7294,-2.7298,-2.7289,-2.7266,-2.7288,-2.7291,-2.7273,-2.7345,-2.7319,-2.7327,-2.736,-2.7433,-2.7438,-2.7443,-2.7482,-2.7492,-2.7501,0,0,0,0,0,0,-2.7223,-2.7229,-2.7218,-2.7266,-2.728,-2.7288,-2.7315,-2.7301,-2.7321,-2.7317,-2.7306,-2.731,-2.7357,-2.7363,-2.7334,-2.7418,-2.7386,-2.7392,-2.7412,-2.7422,-2.743,-2.7428,-2.7298,0,0,0,0,0,-2.7237,-2.7263,-2.7268,-2.731,-2.7318,-2.7315,-2.733,-2.7322,-2.7336,-2.7341,-2.7347,-2.7362,-2.7389,-2.7406,-2.743,-2.7487,-2.749,-2.7513,-2.7522,-2.7528,-2.7534,-2.7566,-2.7577,-2.7462,-2.7462,-2.7461,0,0,-2.7267,-2.7274,-2.729,-2.7318,-2.7328,-2.7356,-2.732,-2.7351,-2.7372,-2.7346,-2.7388,-2.7394,-2.741,-2.7461,-2.7484,-2.7468,-2.7567,-2.7534,-2.754,-2.7542,-2.7572,-2.7583,-2.7593,-2.7465,-2.7464,-2.7464,0,0,-2.7335,-2.7342,-2.7379,-2.739,-2.7404,-2.7403,-2.7412,-2.7423,-2.7425,-2.7467,-2.7449,-2.7475,-2.752,-2.7533,-2.7545,-2.7622,-2.7606,-2.763,-2.7672,-2.7704,-2.7713,-2.7721,-2.7748,-2.7759,-2.7636,-2.7637,-2.7637,0,-2.737,-2.741,-2.74,-2.7433,-2.7446,-2.7424,-2.7463,-2.7474,-2.7496,-2.7507,-2.7488,-2.7546,-2.7555,-2.7609,-2.7628,-2.7639,-2.765,-2.7628,-2.7712,-2.772,-2.7727,-2.7754,-2.7764,-2.7639,-2.7639,-2.7639,-2.7638,0,-2.7453,-2.7482,-2.751,-2.7532,-2.7549,-2.7584,-2.7581,-2.76,-2.7592,-2.7593,-2.7638,-2.7649,-2.7676,-2.7688,-2.7681,-2.7743,-2.7732,-2.7713,-2.768,-2.7741,-2.7766,-2.7776,-2.7643,-2.7642,-2.7641,-2.7641,0,0,-2.7544,-2.7561,-2.7572,-2.7582,-2.7598,-2.7621,-2.7657,-2.7682,-2.7699,-2.7717,-2.7747,-2.7787,-2.777,-2.7785,-2.7779,-2.7806,-2.7867,-2.7784,-2.7784,-2.7799,-2.7938,-2.7951,-2.7963,-2.7858,-2.786,-2.7861,-2.7936,0,-2.7612,-2.7672,-2.7666,-2.7724,-2.7751,-2.7732,-2.7764,-2.7778,-2.7781,-2.7806,-2.781,-2.7839,-2.7814,-2.7822,-2.7849,-2.7854,-2.7895,-2.7849,-2.7887,-2.7889,-2.7883,-2.7976,-2.799,-2.806,-2.7946,-2.7948,-2.7949,0,-2.7699,-2.7719,-2.778,-2.7794,-2.7805,-2.7833,-2.7857,-2.7881,-2.7898,-2.7898,-2.7916,-2.7906,-2.7944,-2.7911,-2.7964,-2.7933,-2.7949,-2.7954,-2.7957,-2.7959,-2.7922,-2.7981,-2.8082,-2.8093,-2.7964,-2.7963,-2.7962,0,-2.776,-2.7802,-2.7844,-2.7854,-2.7871,-2.7891,-2.79,-2.7915,-2.7931,-2.7953,-2.7964,-2.7991,-2.8005,-2.8027,-2.8026,-2.8001,-2.808,-2.8047,-2.8083,-2.8083,-2.8099,-2.8098,-2.8204,-2.811,-2.811,-2.811,-2.811,0,-2.7836,-2.7874,-2.7872,-2.7898,-2.7941,-2.7934,-2.7977,-2.7983,-2.7997,-2.8026,-2.8012,-2.8039,-2.8035,-2.8063,-2.8062,-2.8107,-2.8114,-2.8117,-2.8116,-2.8117,-2.8117,-2.8127,-2.8122,-2.8113,-2.8112,-2.8111,-2.8111,0,-2.791,-2.791,-2.7955,-2.7968,-2.7972,-2.8003,-2.8015,-2.8041,-2.8044,-2.8079,-2.8088,-2.8093,-2.8125,-2.8126,-2.8163,-2.8163,-2.8218,-2.8212,-2.8211,-2.821,-2.8246,-2.8243,-2.8362,-2.8377,-2.8274,-2.8275,-2.8276,0,-2.7958,-2.7987,-2.8004,-2.8021,-2.8031,-2.8059,-2.8076,-2.8072,-2.8091,-2.8114,-2.8137,-2.8168,-2.8192,-2.8245,-2.8253,-2.8282,-2.8277,-2.8317,-2.8281,-2.8282,-2.8277,-2.8275,-2.8279,-2.8323,-2.8324,-2.8325,-2.8326,0,-2.8044,-2.8043,-2.8068,-2.8093,-2.8114,-2.8134,-2.8153,-2.8169,-2.8167,-2.8189,-2.8222,-2.8241,-2.8279,-2.8311,-2.8339,-2.835,-2.8338,-2.8338,-2.8347,-2.8349,-2.8347,-2.8349,-2.823,-2.8334,-2.8334,-2.8333,-2.8332,-2.8332,-2.8107,-2.8132,-2.8148,-2.8176,-2.819,-2.8209,-2.8234,-2.824,-2.8267,-2.8297,-2.8294,-2.8331,-2.835,-2.8387,-2.84,-2.843,-2.8416,-2.843,-2.8434,-2.8437,-2.8441,-2.8344,-2.8435,-2.8435,-2.8435,-2.8435,-2.8434,0,-2.8192,-2.8202,-2.8228,-2.8255,-2.8278,-2.8265,-2.8286,-2.8306,-2.8338,-2.8357,-2.8381,-2.842,-2.8451,-2.8463,-2.8493,-2.8515,-2.8511,-2.8524,-2.8522,-2.8524,-2.8451,-2.844,-2.8527,-2.8527,-2.8527,-2.8527,-2.8527,-2.8527,-2.8238,-2.8281,-2.8283,-2.8333,-2.8343,-2.8378,-2.8391,-2.8409,-2.8423,-2.8467,-2.8493,-2.85,-2.8516,-2.8548,-2.8577,-2.858,-2.8592,-2.8607,-2.8607,-2.8539,-2.8529,-2.852,-2.8509,-2.8609,-2.861,-2.8678,-2.8678,-2.8679]},{"header":{"parameterUnit":"m.s-1","parameterCategory":1,"la1":30.2991,"la2":30.254,"lo1":-89.0895,"lo2":-89.0444,"dy":0.0017,"dx":0.0017,"nx":28,"ny":28,"refTime":"2026-03-04T03:00:00:Z","depth":0,"parameterNumber":3,"parameterNumberName":"V-component_of_WINDS"},"data":[0,0,0,0,0,0,0,0,0,0,0,0,0,0,0,0,0,0,0,0,0,0,0,0,0,0,0,0,0,0,0,0,0,0,0,0,0,0,0,0,0,0,0,0,0,0,0,0,0,0,0,0,0,0,0,0,0,0,0.2134,0.2135,0,0.2197,0.2198,0.2199,0.2282,0.2283,0.2285,0.2286,0.2348,0.2349,0.2349,0,0,0,0,0,0,0,0,0,0,0,0,0,0.2085,0.2085,0.2134,0.2135,0.2136,0.2197,0.2198,0.2199,0.2282,0.2283,0.2285,0.2286,0.2348,0.2349,0.2349,0,0,0,0,0,0,0,0,0,0,0,0,0,0.2123,0.2085,0.2134,0.2184,0.219,0.2197,0.2198,0.2199,0.2281,0.2283,0.2285,0.2287,0.2348,0.2349,0.2349,0.2312,0,0,0.2351,0.2351,0,0,0,0,0,0,0,0,0.2121,0.2125,0.2176,0.2181,0.2187,0.2234,0.2204,0.2237,0.2281,0.2246,0.2286,0.2288,0.2308,0.2312,0.232,0.2315,0.2317,0.2351,0.2351,0.2352,0.2352,0,0,0,0,0,0,0,0.2118,0.2122,0.2159,0.2177,0.2183,0.2204,0.2211,0.221,0.2265,0.2249,0.2256,0.2262,0.2312,0.2319,0.2322,0.2318,0.2351,0.2352,0.2352,0.2352,0.2288,0.2286,0,0,0,0,0,0,0.2108,0.212,0.2157,0.2161,0.2158,0.2203,0.2212,0.2217,0.2265,0.2275,0.226,0.2266,0.2317,0.2321,0.2324,0.2285,0.2352,0.2352,0.2352,0.229,0.2287,0.2285,0,0,0,0,0,0,0.2106,0.211,0.2155,0.2142,0.2149,0.2202,0.2207,0.2217,0.2224,0.2274,0.2284,0.2258,0.2319,0.2323,0.2315,0.2288,0.2352,0.2353,0.2292,0.2289,0.2286,0.2205,0,0,0,0,0,0,0.2105,0.2109,0.2096,0.2141,0.215,0.2144,0.2205,0.2217,0.2225,0.2233,0.2274,0.2282,0.2321,0.2314,0.2315,0.229,0.2353,0.2295,0.2291,0.2287,0.221,0.22,0.219,0,0,0,0,0,0.2103,0.2069,0.2094,0.2098,0.2134,0.2142,0.2147,0.2192,0.2223,0.2209,0.2242,0.2281,0.2291,0.2312,0.2315,0.2289,0.2297,0.2292,0.2287,0.2215,0.2202,0.2191,0,0,0,0,0,0,0.2018,0.2076,0.2105,0.2085,0.2108,0.2156,0.2141,0.2177,0.2191,0.2198,0.2253,0.2261,0.2246,0.2267,0.2289,0.2257,0.23,0.2295,0.2244,0.2232,0.2222,0.2217,0.2354,0,0,0,0,0,0.1997,0.2,0.205,0.2028,0.2039,0.2087,0.2093,0.2126,0.2152,0.2162,0.2193,0.2216,0.2225,0.2229,0.224,0.2214,0.2225,0.2198,0.2188,0.218,0.2175,0.2165,0.2154,0.227,0.227,0.227,0,0,0.1954,0.1986,0.1984,0.2012,0.2034,0.2036,0.2095,0.2094,0.2096,0.2161,0.2156,0.218,0.2209,0.2192,0.2186,0.2209,0.2146,0.2174,0.2166,0.2167,0.2159,0.2148,0.2138,0.2267,0.2267,0.2268,0,0,0.1877,0.1901,0.1886,0.1907,0.194,0.1973,0.1969,0.2012,0.2031,0.2026,0.2077,0.2079,0.2093,0.2112,0.2124,0.2056,0.2093,0.2058,0.2006,0.1995,0.1986,0.1978,0.1955,0.1946,0.2053,0.2053,0.2053,0,0.1819,0.1823,0.1873,0.187,0.1881,0.1942,0.1928,0.1946,0.198,0.1986,0.2011,0.2031,0.2055,0.2044,0.2028,0.2035,0.2033,0.2053,0.1983,0.1976,0.1969,0.1948,0.1939,0.2049,0.2049,0.205,0.205,0,0.1751,0.1754,0.1738,0.1771,0.178,0.1771,0.182,0.1823,0.1856,0.1886,0.1882,0.1913,0.1932,0.1932,0.1963,0.1926,0.1939,0.1973,0.2017,0.1953,0.1934,0.1926,0.2042,0.2044,0.2045,0.2046,0,0,0.1621,0.1683,0.1677,0.1693,0.1735,0.1738,0.1732,0.1751,0.1754,0.1775,0.1772,0.1783,0.1815,0.1828,0.1862,0.1853,0.1799,0.1888,0.189,0.1871,0.1761,0.1736,0.1726,0.1824,0.1822,0.1821,0.1759,0,0.1552,0.1546,0.1592,0.1573,0.1577,0.1636,0.1631,0.1656,0.1685,0.1692,0.1724,0.1731,0.1772,0.1781,0.1774,0.1806,0.1777,0.1812,0.1822,0.1822,0.1813,0.1716,0.1689,0.1629,0.1752,0.1751,0.175,0,0.147,0.1489,0.1471,0.1516,0.1519,0.1514,0.1536,0.1542,0.1572,0.1594,0.161,0.1649,0.1647,0.169,0.1688,0.171,0.1717,0.1734,0.1733,0.1736,0.1782,0.1717,0.1611,0.1602,0.1738,0.1739,0.174,0,0.1379,0.14,0.1392,0.1404,0.1455,0.145,0.1471,0.1504,0.1513,0.1532,0.1539,0.1558,0.1568,0.1581,0.1626,0.1652,0.1619,0.1665,0.1638,0.1636,0.1628,0.1628,0.1522,0.1631,0.1631,0.1631,0.1632,0,0.1297,0.1284,0.1352,0.1347,0.1335,0.1388,0.1374,0.1401,0.1429,0.1431,0.1483,0.1484,0.1542,0.1549,0.1583,0.1578,0.1582,0.1599,0.1609,0.1595,0.1593,0.1601,0.1606,0.1629,0.163,0.163,0.163,0,0.1193,0.1238,0.1234,0.1283,0.1295,0.1284,0.1326,0.1324,0.1357,0.1358,0.1362,0.1413,0.1424,0.147,0.1492,0.1515,0.1498,0.1516,0.1488,0.1495,0.1465,0.1468,0.1361,0.135,0.1465,0.1464,0.1463,0,0.1138,0.113,0.1178,0.1184,0.1203,0.1211,0.1221,0.1273,0.1282,0.1317,0.131,0.1326,0.1342,0.1358,0.1397,0.1414,0.1433,0.1395,0.1436,0.1423,0.1434,0.1434,0.1434,0.1386,0.1384,0.1383,0.1382,0,0.1036,0.1059,0.1073,0.1094,0.1105,0.1124,0.1146,0.1147,0.1206,0.1213,0.1226,0.1238,0.1262,0.1277,0.1301,0.1323,0.1362,0.1369,0.1364,0.135,0.1335,0.1344,0.1465,0.1371,0.1372,0.1373,0.1374,0.1374,0.0956,0.0952,0.0986,0.1,0.1022,0.1042,0.1043,0.1076,0.1088,0.1112,0.1142,0.1152,0.1184,0.1221,0.124,0.1248,0.127,0.1262,0.126,0.1257,0.1251,0.1333,0.1253,0.1253,0.1253,0.1254,0.1254,0,0.0858,0.0883,0.0895,0.0925,0.0936,0.0973,0.0999,0.1006,0.1014,0.1041,0.1055,0.1071,0.1087,0.1128,0.1148,0.1147,0.1165,0.115,0.1151,0.1156,0.123,0.1233,0.1135,0.1135,0.1135,0.1135,0.1135,0.1135,0.0808,0.0804,0.0831,0.0839,0.0865,0.0875,0.0887,0.0906,0.0928,0.0944,0.0957,0.0984,0.1017,0.104,0.1056,0.1068,0.1073,0.1052,0.107,0.1139,0.115,0.1161,0.1164,0.1053,0.1053,0.0995,0.0994,0.0994]}]]